Time,TemperatureF,DewpointF,PressureIn,WindDirection,WindDirectionDegrees,WindSpeedMPH,WindSpeedGustMPH,Humidity,HourlyPrecipIn,Conditions,Clouds,dailyrainin,SolarRadiationWatts/m^2,SoftwareType,DateUTC
2013-04-04 00:00:00,57.0,52.9,30.08,NNE,13,11.5,11.5,86,0.00,SCT,SKC,0.00,0.0,WeatherDisplay:10.37,2013-04-04 06:00:00,
2013-04-04 00:05:00,57.0,52.9,30.08,NNW,337,12.7,12.7,86,0.00,CLR,SKC,0.00,0.0,WeatherDisplay:10.37,2013-04-04 06:05:00,
2013-04-04 00:10:00,57.1,53.3,30.07,NNE,14,11.5,11.5,87,0.00,CLR,SKC,0.00,0.0,WeatherDisplay:10.37,2013-04-04 06:10:00,
2013-04-04 00:15:00,57.1,53.3,30.07,NNE,15,11.5,11.5,87,0.00,CLR,SKC,0.00,0.0,WeatherDisplay:10.37,2013-04-04 06:15:00,
2013-04-04 00:20:00,57.2,53.4,30.07,NNE,30,12.7,12.7,87,0.00,CLR,SKC,0.00,0.0,WeatherDisplay:10.37,2013-04-04 06:20:00,
2013-04-04 00:25:00,57.0,53.2,30.08,NW,315,10.4,10.4,87,0.00,CLR,SKC,0.00,0.0,WeatherDisplay:10.37,2013-04-04 06:25:00,
2013-04-04 00:30:00,56.9,53.1,30.08,North,5,11.5,11.5,87,0.00,CLR,SKC,0.00,0.0,WeatherDisplay:10.37,2013-04-04 06:30:00,
2013-04-04 00:35:00,56.8,53.0,30.08,North,350,15.0,15.0,87,0.00,CLR,SKC,0.00,0.0,WeatherDisplay:10.37,2013-04-04 06:35:00,
2013-04-04 00:40:00,56.8,53.0,30.08,NW,325,12.0,12.0,87,0.00,CLR,SKC,0.00,0.0,WeatherDisplay:10.37,2013-04-04 06:40:00,
2013-04-04 00:45:00,56.7,52.9,30.08,NNE,16,12.7,12.7,87,0.00,CLR,SKC,0.00,0.0,WeatherDisplay:10.37,2013-04-04 06:45:00,
2013-04-04 00:50:00,56.8,53.0,30.08,NNW,328,11.5,11.5,87,0.00,CLR,SKC,0.00,0.0,WeatherDisplay:10.37,2013-04-04 06:50:00,
2013-04-04 00:55:00,56.9,53.1,30.07,NNW,343,10.4,10.4,87,0.00,CLR,SKC,0.00,0.0,WeatherDisplay:10.37,2013-04-04 06:55:00,
2013-04-04 01:00:00,56.8,53.0,30.07,NW,319,16.1,16.1,87,0.00,CLR,SKC,0.00,0.0,WeatherDisplay:10.37,2013-04-04 07:00:00,
2013-04-04 01:05:00,56.8,52.7,30.07,NNE,24,10.4,10.4,86,0.00,BKN,SKC,0.00,0.0,WeatherDisplay:10.37,2013-04-04 07:05:00,
2013-04-04 01:10:00,56.8,53.0,30.06,NNE,24,11.5,11.5,87,0.00,BKN,SKC,0.00,0.0,WeatherDisplay:10.37,2013-04-04 07:10:00,
2013-04-04 01:15:00,56.8,52.7,30.06,NNE,18,6.9,7.0,86,0.00,BKN,SKC,0.00,0.0,WeatherDisplay:10.37,2013-04-04 07:15:00,
2013-04-04 01:20:00,56.7,52.6,30.06,NW,321,10.4,10.4,86,0.00,BKN,SKC,0.00,0.0,WeatherDisplay:10.37,2013-04-04 07:20:00,
2013-04-04 01:26:00,56.9,52.8,30.05,NW,323,6.9,6.9,86,0.00,CLR,SKC,0.00,0.0,WeatherDisplay:10.37,2013-04-04 07:26:00,
2013-04-04 01:31:00,57.0,53.2,30.05,North,350,6.9,6.9,87,0.00,CLR,SKC,0.00,0.0,WeatherDisplay:10.37,2013-04-04 07:31:00,
2013-04-04 01:36:00,56.9,52.8,30.05,NW,325,13.8,13.8,86,0.00,CLR,SKC,0.00,0.0,WeatherDisplay:10.37,2013-04-04 07:36:00,
2013-04-04 01:41:00,56.8,52.7,30.05,NNW,340,11.5,11.5,86,0.00,CLR,SKC,0.00,0.0,WeatherDisplay:10.37,2013-04-04 07:41:00,
2013-04-04 01:46:00,56.7,52.6,30.05,North,9,9.2,9.2,86,0.00,CLR,SKC,0.00,0.0,WeatherDisplay:10.37,2013-04-04 07:46:00,
2013-04-04 01:51:00,56.7,52.6,30.05,NNE,19,5.8,5.8,86,0.00,CLR,SKC,0.00,0.0,WeatherDisplay:10.37,2013-04-04 07:51:00,
2013-04-04 01:56:00,56.7,52.9,30.04,North,5,6.9,6.9,87,0.00,CLR,SKC,0.00,0.0,WeatherDisplay:10.37,2013-04-04 07:56:00,
2013-04-04 02:01:00,56.6,52.5,30.04,NNE,24,7.0,7.0,86,0.00,CLR,SKC,0.00,0.0,WeatherDisplay:10.37,2013-04-04 08:01:00,
2013-04-04 02:06:00,56.6,52.8,30.04,NNW,342,5.8,6.5,87,0.00,BKN,SKC,0.00,0.0,WeatherDisplay:10.37,2013-04-04 08:06:00,
2013-04-04 02:11:00,56.6,52.8,30.05,North,5,4.6,4.6,87,0.00,CLR,SKC,0.00,0.0,WeatherDisplay:10.37,2013-04-04 08:11:00,
2013-04-04 02:16:00,56.7,52.6,30.05,NNW,331,6.9,6.9,86,0.00,CLR,SKC,0.00,0.0,WeatherDisplay:10.37,2013-04-04 08:16:00,
2013-04-04 02:21:00,56.7,52.9,30.05,North,5,9.2,9.2,87,0.00,CLR,SKC,0.00,0.0,WeatherDisplay:10.37,2013-04-04 08:21:00,
2013-04-04 02:26:00,56.6,52.5,30.05,NNW,329,10.4,10.4,86,0.00,CLR,SKC,0.00,0.0,WeatherDisplay:10.37,2013-04-04 08:26:00,
2013-04-04 02:31:00,56.6,52.8,30.05,NNW,327,6.9,6.9,87,0.00,CLR,SKC,0.00,0.0,WeatherDisplay:10.37,2013-04-04 08:31:00,
2013-04-04 02:36:00,56.6,52.8,30.05,NW,319,9.2,9.2,87,0.00,CLR,SKC,0.00,0.0,WeatherDisplay:10.37,2013-04-04 08:36:00,
2013-04-04 02:41:00,56.7,52.9,30.07,NW,316,10.4,10.4,87,0.00,CLR,SKC,0.00,0.0,WeatherDisplay:10.37,2013-04-04 08:41:00,
2013-04-04 02:46:00,56.8,53.0,30.07,WNW,286,10.4,10.4,87,0.00,CLR,SKC,0.00,0.0,WeatherDisplay:10.37,2013-04-04 08:46:00,
2013-04-04 02:52:00,56.8,53.0,30.07,NW,315,9.0,9.0,87,0.00,CLR,SKC,0.00,0.0,WeatherDisplay:10.37,2013-04-04 08:52:00,
2013-04-04 02:57:00,56.7,52.9,30.07,NNW,329,9.2,9.2,87,0.00,CLR,SKC,0.00,0.0,WeatherDisplay:10.37,2013-04-04 08:57:00,
2013-04-04 03:02:00,56.8,53.0,30.07,West,281,12.7,12.7,87,0.00,CLR,SKC,0.00,0.0,WeatherDisplay:10.37,2013-04-04 09:02:00,
2013-04-04 03:07:00,56.8,53.0,30.07,WNW,302,10.4,10.4,87,0.00,CLR,SKC,0.00,0.0,WeatherDisplay:10.37,2013-04-04 09:07:00,
2013-04-04 03:12:00,56.8,53.0,30.07,NW,317,11.5,11.5,87,0.00,CLR,SKC,0.00,0.0,WeatherDisplay:10.37,2013-04-04 09:12:00,
2013-04-04 03:17:00,56.9,53.1,30.07,NW,318,11.5,11.5,87,0.00,CLR,SKC,0.00,0.0,WeatherDisplay:10.37,2013-04-04 09:17:00,
2013-04-04 03:22:00,56.9,53.1,30.07,WNW,301,10.4,10.4,87,0.00,CLR,SKC,0.00,0.0,WeatherDisplay:10.37,2013-04-04 09:22:00,
2013-04-04 03:27:00,56.8,52.7,30.07,West,281,11.5,11.5,86,0.00,CLR,SKC,0.00,0.0,WeatherDisplay:10.37,2013-04-04 09:27:00,
2013-04-04 03:32:00,56.9,53.1,30.07,WNW,297,10.4,10.4,87,0.00,CLR,SKC,0.00,0.0,WeatherDisplay:10.37,2013-04-04 09:32:00,
2013-04-04 03:37:00,57.0,53.2,30.07,NW,313,11.0,11.0,87,0.00,CLR,SKC,0.00,0.0,WeatherDisplay:10.37,2013-04-04 09:37:00,
2013-04-04 03:42:00,56.8,52.7,30.07,WNW,302,15.0,15.0,86,0.00,CLR,SKC,0.00,0.0,WeatherDisplay:10.37,2013-04-04 09:42:00,
2013-04-04 03:47:00,56.8,53.0,30.07,WNW,287,11.5,11.5,87,0.00,CLR,SKC,0.00,0.0,WeatherDisplay:10.37,2013-04-04 09:47:00,
2013-04-04 03:52:00,56.8,52.7,30.07,West,281,12.7,12.7,86,0.00,CLR,SKC,0.00,0.0,WeatherDisplay:10.37,2013-04-04 09:52:00,
2013-04-04 03:57:00,56.8,52.7,30.07,WNW,301,11.5,11.5,86,0.00,CLR,SKC,0.00,0.0,WeatherDisplay:10.37,2013-04-04 09:57:00,
2013-04-04 04:02:00,56.8,52.7,30.07,WNW,286,11.5,11.5,86,0.00,CLR,SKC,0.00,0.0,WeatherDisplay:10.37,2013-04-04 10:02:00,
2013-04-04 04:07:00,56.7,52.6,30.07,WNW,287,13.8,13.8,86,0.00,CLR,SKC,0.00,0.0,WeatherDisplay:10.37,2013-04-04 10:07:00,
2013-04-04 04:12:00,57.0,52.9,30.07,WNW,290,9.2,9.2,86,0.00,CLR,SKC,0.00,0.0,WeatherDisplay:10.37,2013-04-04 10:12:00,
2013-04-04 04:17:00,56.9,52.8,30.07,WNW,285,10.4,10.4,86,0.00,CLR,SKC,0.00,0.0,WeatherDisplay:10.37,2013-04-04 10:17:00,
2013-04-04 04:22:00,56.8,52.3,30.07,NW,319,11.5,11.5,85,0.00,CLR,SKC,0.00,0.0,WeatherDisplay:10.37,2013-04-04 10:22:00,
2013-04-04 04:27:00,56.8,52.7,30.08,West,275,11.5,11.5,86,0.00,CLR,SKC,0.00,0.0,WeatherDisplay:10.37,2013-04-04 10:27:00,
2013-04-04 04:32:00,56.7,52.6,30.08,West,277,11.5,11.5,86,0.00,CLR,SKC,0.00,0.0,WeatherDisplay:10.37,2013-04-04 10:32:00,
2013-04-04 04:37:00,56.7,52.2,30.08,WNW,284,12.7,12.7,85,0.00,CLR,SKC,0.00,0.0,WeatherDisplay:10.37,2013-04-04 10:37:00,
2013-04-04 04:42:00,56.8,52.3,30.08,West,281,15.0,15.0,85,0.00,CLR,SKC,0.00,0.0,WeatherDisplay:10.37,2013-04-04 10:42:00,
2013-04-04 04:47:00,56.9,52.4,30.08,WNW,291,13.8,13.8,85,0.00,CLR,SKC,0.00,0.0,WeatherDisplay:10.37,2013-04-04 10:47:00,
2013-04-04 04:52:00,56.7,52.2,30.08,NW,309,15.0,15.0,85,0.00,CLR,SKC,0.00,0.0,WeatherDisplay:10.37,2013-04-04 10:52:00,
2013-04-04 04:57:00,56.5,51.7,30.08,WNW,286,16.1,16.1,84,0.00,CLR,SKC,0.00,0.0,WeatherDisplay:10.37,2013-04-04 10:57:00,
2013-04-04 05:02:00,56.5,52.0,30.08,West,274,13.8,13.8,85,0.00,CLR,SKC,0.00,0.0,WeatherDisplay:10.37,2013-04-04 11:02:00,
2013-04-04 05:07:00,56.6,52.1,30.08,NW,305,11.5,11.5,85,0.00,CLR,SKC,0.00,0.0,WeatherDisplay:10.37,2013-04-04 11:07:00,
2013-04-04 05:12:00,56.6,52.1,30.08,NW,313,16.1,16.1,85,0.00,CLR,SKC,0.00,0.0,WeatherDisplay:10.37,2013-04-04 11:12:00,
2013-04-04 05:17:00,56.5,52.0,30.08,NW,326,13.8,13.8,85,0.00,CLR,SKC,0.00,0.0,WeatherDisplay:10.37,2013-04-04 11:17:00,
2013-04-04 05:22:00,56.6,52.1,30.08,WNW,302,11.5,11.5,85,0.00,CLR,SKC,0.00,0.0,WeatherDisplay:10.37,2013-04-04 11:22:00,
2013-04-04 05:27:00,56.6,52.1,30.09,WNW,284,11.5,11.5,85,0.00,CLR,SKC,0.00,0.0,WeatherDisplay:10.37,2013-04-04 11:27:00,
2013-04-04 05:32:00,56.5,52.4,30.09,WNW,290,11.5,11.5,86,0.00,CLR,SKC,0.00,0.0,WeatherDisplay:10.37,2013-04-04 11:32:00,
2013-04-04 05:37:00,56.4,51.9,30.09,NW,304,10.4,10.4,85,0.00,CLR,SKC,0.00,0.0,WeatherDisplay:10.37,2013-04-04 11:37:00,
2013-04-04 05:42:00,56.5,52.4,30.10,WNW,284,12.0,12.0,86,0.00,CLR,SKC,0.00,0.0,WeatherDisplay:10.37,2013-04-04 11:42:00,
2013-04-04 05:47:00,56.4,52.3,30.10,West,274,13.0,13.0,86,0.00,CLR,SKC,0.00,0.0,WeatherDisplay:10.37,2013-04-04 11:47:00,
2013-04-04 05:52:00,56.3,51.8,30.10,WNW,282,15.0,15.0,85,0.00,CLR,SKC,0.00,0.0,WeatherDisplay:10.37,2013-04-04 11:52:00,
2013-04-04 05:57:00,56.2,52.1,30.10,WNW,294,12.7,12.7,86,0.00,CLR,SKC,0.00,0.0,WeatherDisplay:10.37,2013-04-04 11:57:00,
2013-04-04 06:02:00,56.3,52.2,30.10,WNW,293,15.0,15.0,86,0.00,CLR,SKC,0.00,0.0,WeatherDisplay:10.37,2013-04-04 12:02:00,
2013-04-04 06:07:00,56.2,51.7,30.10,West,278,13.8,13.8,85,0.00,CLR,SKC,0.00,0.0,WeatherDisplay:10.37,2013-04-04 12:07:00,
2013-04-04 06:12:00,56.1,51.7,30.10,West,272,11.5,11.5,85,0.00,CLR,SKC,0.00,0.0,WeatherDisplay:10.37,2013-04-04 12:12:00,
2013-04-04 06:17:00,56.1,52.0,30.10,WNW,290,11.5,11.5,86,0.00,CLR,SKC,0.00,0.0,WeatherDisplay:10.37,2013-04-04 12:17:00,
2013-04-04 06:22:00,56.2,52.1,30.10,West,270,13.0,13.0,86,0.00,CLR,SKC,0.00,0.0,WeatherDisplay:10.37,2013-04-04 12:22:00,
2013-04-04 06:27:00,56.1,52.0,30.11,WNW,294,11.5,11.5,86,0.00,CLR,SKC,0.00,0.0,WeatherDisplay:10.37,2013-04-04 12:27:00,
2013-04-04 06:32:00,56.2,52.1,30.11,WNW,298,12.7,12.7,86,0.00,CLR,SKC,0.00,0.0,WeatherDisplay:10.37,2013-04-04 12:32:00,
2013-04-04 06:37:00,56.2,52.1,30.11,WNW,284,15.0,15.0,86,0.00,CLR,SKC,0.00,5.0,WeatherDisplay:10.37,2013-04-04 12:37:00,
2013-04-04 06:42:00,56.2,52.1,30.11,WNW,303,13.8,13.8,86,0.00,CLR,SKC,0.00,7.0,WeatherDisplay:10.37,2013-04-04 12:42:00,
2013-04-04 06:47:00,55.9,52.1,30.11,WNW,301,16.1,16.1,87,0.00,CLR,SKC,0.00,11.0,WeatherDisplay:10.37,2013-04-04 12:47:00,
2013-04-04 06:52:00,55.8,51.7,30.11,NW,307,11.5,11.5,86,0.00,CLR,SKC,0.00,14.0,WeatherDisplay:10.37,2013-04-04 12:52:00,
2013-04-04 06:57:00,55.9,52.1,30.11,WNW,300,16.1,16.1,87,0.00,CLR,SKC,0.00,16.0,WeatherDisplay:10.37,2013-04-04 12:57:00,
2013-04-04 07:02:00,55.9,51.8,30.11,WNW,288,14.0,14.0,86,0.00,CLR,SKC,0.00,21.0,WeatherDisplay:10.37,2013-04-04 13:02:00,
2013-04-04 07:07:00,55.8,51.7,30.11,WNW,296,13.8,13.8,86,0.00,CLR,SKC,0.00,23.0,WeatherDisplay:10.37,2013-04-04 13:07:00,
2013-04-04 07:12:00,55.7,51.6,30.11,WNW,282,15.0,15.0,86,0.00,CLR,SKC,0.00,37.0,WeatherDisplay:10.37,2013-04-04 13:12:00,
2013-04-04 07:17:00,55.5,51.7,30.11,WNW,302,16.1,16.1,87,0.00,CLR,SKC,0.00,28.0,WeatherDisplay:10.37,2013-04-04 13:17:00,
2013-04-04 07:22:00,55.5,51.7,30.11,West,281,19.6,19.6,87,0.00,CLR,SKC,0.00,28.0,WeatherDisplay:10.37,2013-04-04 13:22:00,
2013-04-04 07:27:00,55.0,51.2,30.13,West,273,19.6,19.6,87,0.00,CLR,SKC,0.00,46.0,WeatherDisplay:10.37,2013-04-04 13:27:00,
2013-04-04 07:32:00,55.3,51.8,30.13,WNW,286,12.7,12.7,88,0.00,CLR,SKC,0.00,49.0,WeatherDisplay:10.37,2013-04-04 13:32:00,
2013-04-04 07:37:00,55.1,51.0,30.13,WSW,257,18.4,18.4,86,0.00,CLR,SKC,0.00,49.0,WeatherDisplay:10.37,2013-04-04 13:37:00,
2013-04-04 07:42:00,55.0,51.2,30.13,WNW,282,18.4,18.4,87,0.00,CLR,SKC,0.00,60.0,WeatherDisplay:10.37,2013-04-04 13:42:00,
2013-04-04 07:47:00,54.9,51.1,30.13,WNW,286,14.0,14.0,87,0.00,CLR,SKC,0.00,63.0,WeatherDisplay:10.37,2013-04-04 13:47:00,
2013-04-04 07:52:00,55.0,51.2,30.13,WNW,285,16.1,16.1,87,0.00,CLR,SKC,0.00,70.0,WeatherDisplay:10.37,2013-04-04 13:52:00,
2013-04-04 07:57:00,55.0,50.9,30.14,WNW,284,17.3,17.3,86,0.00,CLR,SKC,0.00,91.0,WeatherDisplay:10.37,2013-04-04 13:57:00,
2013-04-04 08:02:00,55.1,51.0,30.14,WNW,288,16.1,16.1,86,0.00,CLR,SKC,0.00,90.0,WeatherDisplay:10.37,2013-04-04 14:02:00,
2013-04-04 08:07:00,55.1,51.0,30.14,West,279,17.3,17.3,86,0.00,CLR,SKC,0.00,107.0,WeatherDisplay:10.37,2013-04-04 14:07:00,
2013-04-04 08:12:00,55.1,50.4,30.14,WNW,292,13.8,13.8,84,0.00,CLR,SKC,0.00,118.0,WeatherDisplay:10.37,2013-04-04 14:12:00,
2013-04-04 08:17:00,55.3,50.5,30.14,WNW,286,15.0,15.0,84,0.00,CLR,SKC,0.00,113.0,WeatherDisplay:10.37,2013-04-04 14:17:00,
2013-04-04 08:23:00,55.4,50.6,30.14,WNW,290,13.8,13.8,84,0.00,CLR,SKC,0.00,163.0,WeatherDisplay:10.37,2013-04-04 14:23:00,
2013-04-04 08:28:00,55.6,51.2,30.14,West,281,13.0,13.0,85,0.00,CLR,SKC,0.00,111.0,WeatherDisplay:10.37,2013-04-04 14:28:00,
2013-04-04 08:33:00,55.6,50.8,30.14,WNW,286,17.3,17.3,84,0.00,CLR,SKC,0.00,134.0,WeatherDisplay:10.37,2013-04-04 14:33:00,
2013-04-04 08:38:00,55.5,51.1,30.14,WNW,300,15.0,15.0,85,0.00,CLR,SKC,0.00,139.0,WeatherDisplay:10.37,2013-04-04 14:38:00,
2013-04-04 08:43:00,55.4,50.6,30.15,West,269,15.0,15.0,84,0.00,CLR,SKC,0.00,156.0,WeatherDisplay:10.37,2013-04-04 14:43:00,
2013-04-04 08:48:00,55.5,51.1,30.15,WNW,286,15.0,15.0,85,0.00,CLR,SKC,0.00,149.0,WeatherDisplay:10.37,2013-04-04 14:48:00,
2013-04-04 08:53:00,55.8,51.0,30.15,WNW,290,12.7,12.7,84,0.00,CLR,SKC,0.00,109.0,WeatherDisplay:10.37,2013-04-04 14:53:00,
2013-04-04 08:58:00,55.6,50.8,30.15,NW,321,15.0,15.0,84,0.00,CLR,SKC,0.00,137.0,WeatherDisplay:10.37,2013-04-04 14:58:00,
2013-04-04 09:03:00,55.6,50.8,30.15,WNW,302,15.0,15.0,84,0.00,CLR,SKC,0.00,179.0,WeatherDisplay:10.37,2013-04-04 15:03:00,
2013-04-04 09:08:00,55.8,51.0,30.15,West,278,12.7,12.7,84,0.00,CLR,SKC,0.00,230.0,WeatherDisplay:10.37,2013-04-04 15:08:00,
2013-04-04 09:13:00,55.8,50.7,30.15,NNW,336,11.5,11.5,83,0.00,CLR,SKC,0.00,320.0,WeatherDisplay:10.37,2013-04-04 15:13:00,
2013-04-04 09:18:00,56.2,51.1,30.15,WNW,300,11.5,11.5,83,0.00,CLR,SKC,0.00,195.0,WeatherDisplay:10.37,2013-04-04 15:18:00,
2013-04-04 09:23:00,56.0,50.3,30.15,West,270,16.1,16.1,81,0.00,CLR,SKC,0.00,199.0,WeatherDisplay:10.37,2013-04-04 15:23:00,
2013-04-04 09:28:00,56.1,50.7,30.15,NW,310,15.0,15.0,82,0.00,CLR,SKC,0.00,163.0,WeatherDisplay:10.37,2013-04-04 15:28:00,
2013-04-04 09:33:00,55.8,50.1,30.15,NW,325,12.7,12.7,81,0.00,CLR,SKC,0.00,237.0,WeatherDisplay:10.37,2013-04-04 15:33:00,
2013-04-04 09:38:00,56.2,50.8,30.15,West,269,10.4,10.4,82,0.00,CLR,SKC,0.00,229.0,WeatherDisplay:10.37,2013-04-04 15:38:00,
2013-04-04 09:43:00,56.1,50.3,30.15,WNW,299,11.5,11.5,81,0.00,CLR,SKC,0.00,287.0,WeatherDisplay:10.37,2013-04-04 15:43:00,
2013-04-04 09:48:00,56.3,50.2,30.15,NNW,331,11.5,11.5,80,0.00,CLR,SKC,0.00,250.0,WeatherDisplay:10.37,2013-04-04 15:48:00,
2013-04-04 09:53:00,56.3,50.2,30.15,NW,319,11.5,11.5,80,0.00,CLR,SKC,0.00,267.0,WeatherDisplay:10.37,2013-04-04 15:53:00,
2013-04-04 09:59:00,56.6,50.8,30.15,NW,319,13.8,13.8,81,0.00,CLR,SKC,0.00,234.0,WeatherDisplay:10.37,2013-04-04 15:59:00,
2013-04-04 10:04:00,56.5,50.4,30.15,WNW,299,12.7,12.7,80,0.00,CLR,SKC,0.00,241.0,WeatherDisplay:10.37,2013-04-04 16:04:00,
2013-04-04 10:09:00,56.4,50.3,30.15,NW,319,12.7,12.7,80,0.00,CLR,SKC,0.00,285.0,WeatherDisplay:10.37,2013-04-04 16:09:00,
2013-04-04 10:14:00,56.5,50.4,30.15,West,276,16.1,16.1,80,0.00,CLR,SKC,0.00,315.0,WeatherDisplay:10.37,2013-04-04 16:14:00,
2013-04-04 10:19:00,56.4,50.0,30.15,WNW,286,18.4,18.4,79,0.00,CLR,SKC,0.00,315.0,WeatherDisplay:10.37,2013-04-04 16:19:00,
2013-04-04 10:24:00,56.5,50.1,30.15,NW,317,14.0,14.0,79,0.00,CLR,SKC,0.00,292.0,WeatherDisplay:10.37,2013-04-04 16:24:00,
2013-04-04 10:29:00,56.6,50.5,30.16,NW,305,18.4,18.4,80,0.00,CLR,SKC,0.00,418.0,WeatherDisplay:10.37,2013-04-04 16:29:00,
2013-04-04 10:34:00,56.6,50.5,30.16,NW,323,16.1,16.1,80,0.00,CLR,SKC,0.00,418.0,WeatherDisplay:10.37,2013-04-04 16:34:00,
2013-04-04 10:39:00,56.9,50.5,30.16,WNW,303,11.5,11.5,79,0.00,CLR,SKC,0.00,554.0,WeatherDisplay:10.37,2013-04-04 16:39:00,
2013-04-04 10:44:00,57.0,50.5,30.16,NW,325,15.0,15.0,79,0.00,CLR,SKC,0.00,348.0,WeatherDisplay:10.37,2013-04-04 16:44:00,
2013-04-04 10:50:00,57.3,50.5,30.16,NW,304,12.7,12.7,78,0.00,CLR,SKC,0.00,519.0,WeatherDisplay:10.37,2013-04-04 16:50:00,
2013-04-04 10:55:00,57.6,50.4,30.16,WNW,294,13.8,13.8,77,0.00,CLR,SKC,0.00,462.0,WeatherDisplay:10.37,2013-04-04 16:55:00,
2013-04-04 11:00:00,57.7,50.5,30.16,NW,319,13.8,13.8,77,0.00,BKN,SKC,0.00,390.0,WeatherDisplay:10.37,2013-04-04 17:00:00,
2013-04-04 11:05:00,58.0,50.1,30.16,NW,325,15.0,15.0,75,0.00,BKN,SKC,0.00,928.0,WeatherDisplay:10.37,2013-04-04 17:05:00,
2013-04-04 11:10:00,58.4,50.1,30.15,WNW,285,13.8,13.8,74,0.00,BKN,SKC,0.00,965.0,WeatherDisplay:10.37,2013-04-04 17:10:00,
2013-04-04 11:15:00,58.2,50.0,30.15,West,273,12.7,12.7,74,0.00,BKN,SKC,0.00,898.0,WeatherDisplay:10.37,2013-04-04 17:15:00,
2013-04-04 11:20:00,58.7,50.1,30.15,NNW,338,16.1,16.1,73,0.00,BKN,SKC,0.00,888.0,WeatherDisplay:10.37,2013-04-04 17:20:00,
2013-04-04 11:25:00,58.6,50.3,30.15,NW,317,15.0,15.0,74,0.00,BKN,SKC,0.00,891.0,WeatherDisplay:10.37,2013-04-04 17:25:00,
2013-04-04 11:30:00,58.7,50.1,30.15,NW,315,12.7,12.7,73,0.00,BKN,SKC,0.00,896.0,WeatherDisplay:10.37,2013-04-04 17:30:00,
2013-04-04 11:35:00,59.0,50.7,30.15,NW,317,13.8,13.8,74,0.00,BKN,SKC,0.00,900.0,WeatherDisplay:10.37,2013-04-04 17:35:00,
2013-04-04 11:40:00,59.5,50.5,30.14,NW,308,16.1,16.1,72,0.00,BKN,SKC,0.00,905.0,WeatherDisplay:10.37,2013-04-04 17:40:00,
2013-04-04 11:45:00,59.7,50.3,30.14,NW,319,13.8,13.8,71,0.00,BKN,SKC,0.00,909.0,WeatherDisplay:10.37,2013-04-04 17:45:00,
2013-04-04 11:50:00,59.8,50.4,30.14,NW,326,13.0,13.0,71,0.00,BKN,SKC,0.00,912.0,WeatherDisplay:10.37,2013-04-04 17:50:00,
2013-04-04 11:55:00,60.2,50.8,30.13,NNW,329,16.1,16.1,71,0.00,BKN,SKC,0.00,916.0,WeatherDisplay:10.37,2013-04-04 17:55:00,
2013-04-04 12:00:00,60.6,50.8,30.13,NNW,327,13.0,13.0,70,0.00,BKN,SKC,0.00,919.0,WeatherDisplay:10.37,2013-04-04 18:00:00,
2013-04-04 12:05:00,60.8,51.3,30.13,NW,316,10.4,10.4,71,0.00,OVC,SKC,0.00,921.0,WeatherDisplay:10.37,2013-04-04 18:05:00,
2013-04-04 12:10:00,61.1,51.2,30.12,NW,304,11.5,11.5,70,0.00,OVC,SKC,0.00,923.0,WeatherDisplay:10.37,2013-04-04 18:10:00,
2013-04-04 12:15:00,61.3,51.0,30.12,North,360,13.8,13.8,69,0.00,OVC,SKC,0.00,925.0,WeatherDisplay:10.37,2013-04-04 18:15:00,
2013-04-04 12:20:00,61.4,51.1,30.12,NNW,344,16.1,16.1,69,0.00,OVC,SKC,0.00,925.0,WeatherDisplay:10.37,2013-04-04 18:20:00,
2013-04-04 12:27:00,61.6,50.9,30.11,NNW,345,11.5,11.5,68,0.00,CLR,SKC,0.00,925.0,WeatherDisplay:10.37,2013-04-04 18:27:00,
2013-04-04 12:32:00,62.6,51.9,30.11,West,281,11.5,11.5,68,0.00,CLR,SKC,0.00,926.0,WeatherDisplay:10.37,2013-04-04 18:32:00,
2013-04-04 12:37:00,62.7,51.6,30.11,NNW,330,11.5,11.5,67,0.00,CLR,SKC,0.00,925.0,WeatherDisplay:10.37,2013-04-04 18:37:00,
2013-04-04 12:42:00,63.1,51.6,30.11,WNW,296,13.8,13.8,66,0.00,CLR,SKC,0.00,926.0,WeatherDisplay:10.37,2013-04-04 18:42:00,
2013-04-04 12:47:00,63.6,51.6,30.11,NW,320,17.3,17.3,65,0.00,CLR,SKC,0.00,921.0,WeatherDisplay:10.37,2013-04-04 18:47:00,
2013-04-04 12:52:00,63.8,51.4,30.11,NW,317,18.4,18.4,64,0.00,CLR,SKC,0.00,921.0,WeatherDisplay:10.37,2013-04-04 18:52:00,
2013-04-04 12:57:00,63.9,51.1,30.10,West,273,15.0,15.0,63,0.00,CLR,SKC,0.00,918.0,WeatherDisplay:10.37,2013-04-04 18:57:00,
2013-04-04 13:02:00,64.4,52.0,30.10,NNW,333,11.5,11.5,64,0.00,CLR,SKC,0.00,916.0,WeatherDisplay:10.37,2013-04-04 19:02:00,
2013-04-04 13:07:00,64.8,51.5,30.10,WNW,284,16.1,16.1,62,0.00,CLR,SKC,0.00,912.0,WeatherDisplay:10.37,2013-04-04 19:07:00,
2013-04-04 13:12:00,65.2,50.5,30.08,WNW,288,16.1,16.1,59,0.00,CLR,SKC,0.00,909.0,WeatherDisplay:10.37,2013-04-04 19:12:00,
2013-04-04 13:17:00,65.5,51.7,30.08,NNW,333,13.8,13.8,61,0.00,CLR,SKC,0.00,905.0,WeatherDisplay:10.37,2013-04-04 19:17:00,
2013-04-04 13:22:00,65.6,51.8,30.08,WNW,301,10.0,10.0,61,0.00,CLR,SKC,0.00,900.0,WeatherDisplay:10.37,2013-04-04 19:22:00,
2013-04-04 13:27:00,65.5,50.8,30.08,NNW,345,11.5,11.5,59,0.00,CLR,SKC,0.00,895.0,WeatherDisplay:10.37,2013-04-04 19:27:00,
2013-04-04 13:32:00,65.8,51.5,30.08,NW,304,11.5,11.5,60,0.00,CLR,SKC,0.00,888.0,WeatherDisplay:10.37,2013-04-04 19:32:00,
2013-04-04 13:37:00,66.5,51.7,30.08,WNW,302,10.4,10.4,59,0.00,CLR,SKC,0.00,882.0,WeatherDisplay:10.37,2013-04-04 19:37:00,
2013-04-04 13:42:00,66.9,51.2,30.07,NNW,344,11.5,11.5,57,0.00,CLR,SKC,0.00,875.0,WeatherDisplay:10.37,2013-04-04 19:42:00,
2013-04-04 13:47:00,67.1,50.4,30.07,WNW,288,13.8,13.8,55,0.00,CLR,SKC,0.00,870.0,WeatherDisplay:10.37,2013-04-04 19:47:00,
2013-04-04 13:52:00,67.3,50.1,30.07,NNW,347,16.1,16.1,54,0.00,CLR,SKC,0.00,861.0,WeatherDisplay:10.37,2013-04-04 19:52:00,
2013-04-04 13:57:00,67.4,50.2,30.06,WNW,302,14.0,14.0,54,0.00,CLR,SKC,0.00,854.0,WeatherDisplay:10.37,2013-04-04 19:57:00,
2013-04-04 14:02:00,67.3,50.1,30.06,NNW,333,15.0,15.0,54,0.00,CLR,SKC,0.00,847.0,WeatherDisplay:10.37,2013-04-04 20:02:00,
2013-04-04 14:07:00,67.8,49.5,30.06,NNE,24,12.7,12.7,52,0.00,CLR,SKC,0.00,837.0,WeatherDisplay:10.37,2013-04-04 20:07:00,
2013-04-04 14:12:00,68.1,50.3,30.06,NNW,327,13.8,13.8,53,0.00,CLR,SKC,0.00,826.0,WeatherDisplay:10.37,2013-04-04 20:12:00,
2013-04-04 14:17:00,68.3,50.5,30.06,NW,323,10.4,10.4,53,0.00,CLR,SKC,0.00,816.0,WeatherDisplay:10.37,2013-04-04 20:17:00,
2013-04-04 14:23:00,68.5,49.7,30.06,NNW,327,13.8,13.8,51,0.00,CLR,SKC,0.00,807.0,WeatherDisplay:10.37,2013-04-04 20:23:00,
2013-04-04 14:28:00,68.6,49.7,30.05,NW,315,10.4,10.4,51,0.00,CLR,SKC,0.00,796.0,WeatherDisplay:10.37,2013-04-04 20:28:00,
2013-04-04 14:33:00,68.6,49.7,30.05,NNW,340,10.4,10.4,51,0.00,CLR,SKC,0.00,784.0,WeatherDisplay:10.37,2013-04-04 20:33:00,
2013-04-04 14:38:00,68.8,49.9,30.05,NNW,334,10.4,10.4,51,0.00,CLR,SKC,0.00,770.0,WeatherDisplay:10.37,2013-04-04 20:38:00,
2013-04-04 14:43:00,69.0,50.1,30.05,North,355,10.4,10.4,51,0.00,CLR,SKC,0.00,761.0,WeatherDisplay:10.37,2013-04-04 20:43:00,
2013-04-04 14:48:00,69.2,49.8,30.05,NNW,327,13.8,13.8,50,0.00,CLR,SKC,0.00,747.0,WeatherDisplay:10.37,2013-04-04 20:48:00,
2013-04-04 14:53:00,69.5,50.0,30.05,NW,317,12.7,12.7,50,0.00,CLR,SKC,0.00,752.0,WeatherDisplay:10.37,2013-04-04 20:53:00,
2013-04-04 14:58:00,69.9,49.9,30.04,NW,315,10.4,10.4,49,0.00,CLR,SKC,0.00,724.0,WeatherDisplay:10.37,2013-04-04 20:58:00,
2013-04-04 15:03:00,70.0,50.0,30.04,NNE,15,11.5,11.5,49,0.00,CLR,SKC,0.00,708.0,WeatherDisplay:10.37,2013-04-04 21:03:00,
2013-04-04 15:08:00,70.2,49.6,30.04,NW,319,11.5,11.5,48,0.00,CLR,SKC,0.00,696.0,WeatherDisplay:10.37,2013-04-04 21:08:00,
2013-04-04 15:13:00,70.5,49.3,30.04,NW,324,9.2,9.2,47,0.00,CLR,SKC,0.00,682.0,WeatherDisplay:10.37,2013-04-04 21:13:00,
2013-04-04 15:18:00,70.5,49.9,30.04,NW,315,10.4,10.4,48,0.00,CLR,SKC,0.00,671.0,WeatherDisplay:10.37,2013-04-04 21:18:00,
2013-04-04 15:23:00,70.5,50.4,30.04,NW,310,7.0,7.0,49,0.00,CLR,SKC,0.00,654.0,WeatherDisplay:10.37,2013-04-04 21:23:00,
2013-04-04 15:28:00,70.5,49.9,30.04,NW,304,9.0,9.0,48,0.00,CLR,SKC,0.00,638.0,WeatherDisplay:10.37,2013-04-04 21:28:00,
2013-04-04 15:33:00,70.5,49.9,30.04,NW,315,12.7,12.7,48,0.00,CLR,SKC,0.00,624.0,WeatherDisplay:10.37,2013-04-04 21:33:00,
2013-04-04 15:38:00,70.4,50.3,30.04,NNE,28,11.5,11.5,49,0.00,CLR,SKC,0.00,606.0,WeatherDisplay:10.37,2013-04-04 21:38:00,
2013-04-04 15:43:00,70.4,49.8,30.04,NW,317,10.4,10.4,48,0.00,CLR,SKC,0.00,592.0,WeatherDisplay:10.37,2013-04-04 21:43:00,
2013-04-04 15:48:00,70.7,50.0,30.04,North,355,5.8,5.8,48,0.00,CLR,SKC,0.00,577.0,WeatherDisplay:10.37,2013-04-04 21:48:00,
2013-04-04 15:53:00,70.7,49.5,30.04,NW,320,10.0,10.0,47,0.00,CLR,SKC,0.00,561.0,WeatherDisplay:10.37,2013-04-04 21:53:00,
2013-04-04 15:58:00,70.8,49.0,30.03,NNW,327,8.1,8.1,46,0.00,CLR,SKC,0.00,547.0,WeatherDisplay:10.37,2013-04-04 21:58:00,
2013-04-04 16:03:00,70.8,49.0,30.03,North,355,11.5,11.5,46,0.00,CLR,SKC,0.00,529.0,WeatherDisplay:10.37,2013-04-04 22:03:00,
2013-04-04 16:08:00,70.8,49.6,30.03,NNW,327,11.5,11.5,47,0.00,CLR,SKC,0.00,512.0,WeatherDisplay:10.37,2013-04-04 22:08:00,
2013-04-04 16:13:00,71.0,49.2,30.02,North,351,11.5,11.5,46,0.00,CLR,SKC,0.00,496.0,WeatherDisplay:10.37,2013-04-04 22:13:00,
2013-04-04 16:18:00,71.1,50.4,30.02,NNW,345,7.0,7.0,48,0.00,CLR,SKC,0.00,478.0,WeatherDisplay:10.37,2013-04-04 22:18:00,
2013-04-04 16:23:00,71.1,49.3,30.02,NNE,24,11.0,11.0,46,0.00,CLR,SKC,0.00,461.0,WeatherDisplay:10.37,2013-04-04 22:23:00,
2013-04-04 16:28:00,71.3,49.4,30.02,NNW,327,15.0,15.0,46,0.00,CLR,SKC,0.00,443.0,WeatherDisplay:10.37,2013-04-04 22:28:00,
2013-04-04 16:33:00,71.4,48.9,30.02,NNW,342,11.5,11.5,45,0.00,CLR,SKC,0.00,425.0,WeatherDisplay:10.37,2013-04-04 22:33:00,
2013-04-04 16:38:00,71.2,49.4,30.02,NNW,333,11.5,11.5,46,0.00,CLR,SKC,0.00,408.0,WeatherDisplay:10.37,2013-04-04 22:38:00,
2013-04-04 16:43:00,71.2,49.9,30.03,NNW,329,11.5,11.5,47,0.00,CLR,SKC,0.00,390.0,WeatherDisplay:10.37,2013-04-04 22:43:00,
2013-04-04 16:48:00,71.3,48.9,30.03,NNE,14,7.0,7.0,45,0.00,CLR,SKC,0.00,373.0,WeatherDisplay:10.37,2013-04-04 22:48:00,
2013-04-04 16:53:00,71.6,49.7,30.03,NNE,14,11.5,11.5,46,0.00,CLR,SKC,0.00,355.0,WeatherDisplay:10.37,2013-04-04 22:53:00,
2013-04-04 16:58:00,71.5,49.6,30.03,NNW,346,11.5,11.5,46,0.00,CLR,SKC,0.00,339.0,WeatherDisplay:10.37,2013-04-04 22:58:00,
2013-04-04 17:03:00,71.4,49.5,30.03,North,355,11.5,11.5,46,0.00,CLR,SKC,0.00,322.0,WeatherDisplay:10.37,2013-04-04 23:03:00,
2013-04-04 17:08:00,71.5,49.0,30.03,NNE,16,9.2,9.2,45,0.00,CLR,SKC,0.00,304.0,WeatherDisplay:10.37,2013-04-04 23:08:00,
2013-04-04 17:13:00,71.6,49.7,30.03,NNW,340,10.4,10.4,46,0.00,CLR,SKC,0.00,287.0,WeatherDisplay:10.37,2013-04-04 23:13:00,
2013-04-04 17:18:00,71.7,48.6,30.03,WNW,296,11.5,11.5,44,0.00,CLR,SKC,0.00,271.0,WeatherDisplay:10.37,2013-04-04 23:18:00,
2013-04-04 17:23:00,71.5,49.6,30.03,NNE,21,10.4,10.4,46,0.00,CLR,SKC,0.00,253.0,WeatherDisplay:10.37,2013-04-04 23:23:00,
2013-04-04 17:28:00,71.5,50.8,30.03,NE,46,7.0,7.0,48,0.00,CLR,SKC,0.00,236.0,WeatherDisplay:10.37,2013-04-04 23:28:00,
2013-04-04 17:33:00,71.5,50.8,30.03,NW,323,5.0,5.0,48,0.00,CLR,SKC,0.00,220.0,WeatherDisplay:10.37,2013-04-04 23:33:00,
2013-04-04 17:38:00,71.6,50.3,30.03,North,5,11.5,11.5,47,0.00,CLR,SKC,0.00,202.0,WeatherDisplay:10.37,2013-04-04 23:38:00,
2013-04-04 17:43:00,71.5,50.8,30.04,North,5,10.4,10.4,48,0.00,CLR,SKC,0.00,186.0,WeatherDisplay:10.37,2013-04-04 23:43:00,
2013-04-04 17:48:00,71.4,50.7,30.04,NNW,342,9.2,9.2,48,0.00,CLR,SKC,0.00,171.0,WeatherDisplay:10.37,2013-04-04 23:48:00,
2013-04-04 17:53:00,71.4,49.5,30.04,NNE,25,11.0,11.0,46,0.00,CLR,SKC,0.00,155.0,WeatherDisplay:10.37,2013-04-04 23:53:00,
2013-04-04 17:58:00,71.3,50.0,30.04,NW,323,9.2,9.2,47,0.00,CLR,SKC,0.00,134.0,WeatherDisplay:10.37,2013-04-04 23:58:00,
2013-04-04 18:03:00,71.2,49.4,30.04,NNW,331,6.9,6.9,46,0.00,CLR,SKC,0.00,111.0,WeatherDisplay:10.37,2013-04-05 00:03:00,
2013-04-04 18:08:00,71.1,49.8,30.04,NE,34,11.5,11.5,47,0.00,CLR,SKC,0.00,93.0,WeatherDisplay:10.37,2013-04-05 00:08:00,
2013-04-04 18:13:00,71.1,51.5,30.04,North,360,10.4,10.4,50,0.00,CLR,SKC,0.00,76.0,WeatherDisplay:10.37,2013-04-05 00:13:00,
2013-04-04 18:18:00,71.0,49.2,30.04,NNW,327,7.0,7.0,46,0.00,CLR,SKC,0.00,58.0,WeatherDisplay:10.37,2013-04-05 00:18:00,
2013-04-04 18:23:00,70.9,50.2,30.04,North,5,6.9,6.9,48,0.00,CLR,SKC,0.00,44.0,WeatherDisplay:10.37,2013-04-05 00:23:00,
2013-04-04 18:28:00,70.7,51.1,30.04,NNW,346,9.2,9.2,50,0.00,CLR,SKC,0.00,32.0,WeatherDisplay:10.37,2013-04-05 00:28:00,
2013-04-04 18:33:00,70.5,51.0,30.04,NW,323,9.2,9.2,50,0.00,CLR,SKC,0.00,23.0,WeatherDisplay:10.37,2013-04-05 00:33:00,
2013-04-04 18:38:00,70.4,50.9,30.04,NE,44,10.4,10.4,50,0.00,CLR,SKC,0.00,14.0,WeatherDisplay:10.37,2013-04-05 00:38:00,
2013-04-04 18:43:00,69.7,52.3,30.04,NE,46,4.6,4.6,54,0.00,CLR,SKC,0.00,9.0,WeatherDisplay:10.37,2013-04-05 00:43:00,
2013-04-04 18:48:00,68.8,52.0,30.04,NNE,33,5.0,5.0,55,0.00,CLR,SKC,0.00,5.0,WeatherDisplay:10.37,2013-04-05 00:48:00,
2013-04-04 18:53:00,68.1,51.8,30.04,ENE,74,7.0,7.0,56,0.00,CLR,SKC,0.00,0.0,WeatherDisplay:10.37,2013-04-05 00:53:00,
2013-04-04 18:58:00,67.6,52.8,30.05,ENE,61,11.5,11.5,59,0.00,CLR,SKC,0.00,0.0,WeatherDisplay:10.37,2013-04-05 00:58:00,
2013-04-04 19:03:00,67.3,52.5,30.05,ENE,64,10.4,10.4,59,0.00,CLR,SKC,0.00,0.0,WeatherDisplay:10.37,2013-04-05 01:03:00,
2013-04-04 19:08:00,67.0,52.2,30.05,NE,47,9.2,9.2,59,0.00,CLR,SKC,0.00,0.0,WeatherDisplay:10.37,2013-04-05 01:08:00,
2013-04-04 19:13:00,66.8,51.1,30.05,ENE,59,7.0,7.0,57,0.00,CLR,SKC,0.00,0.0,WeatherDisplay:10.37,2013-04-05 01:13:00,
2013-04-04 19:18:00,66.6,51.4,30.05,NE,54,9.2,9.2,58,0.00,CLR,SKC,0.00,0.0,WeatherDisplay:10.37,2013-04-05 01:18:00,
2013-04-04 19:23:00,66.3,51.1,30.05,NE,38,5.8,5.8,58,0.00,CLR,SKC,0.00,0.0,WeatherDisplay:10.37,2013-04-05 01:23:00,
2013-04-04 19:28:00,66.0,51.7,30.06,NE,34,4.6,4.6,60,0.00,CLR,SKC,0.00,0.0,WeatherDisplay:10.37,2013-04-05 01:28:00,
2013-04-04 19:33:00,65.6,51.8,30.06,NNE,28,4.6,4.6,61,0.00,CLR,SKC,0.00,0.0,WeatherDisplay:10.37,2013-04-05 01:33:00,
2013-04-04 19:38:00,65.4,52.0,30.06,ENE,61,6.9,6.9,62,0.00,CLR,SKC,0.00,0.0,WeatherDisplay:10.37,2013-04-05 01:38:00,
2013-04-04 19:43:00,65.0,52.1,30.07,ENE,61,10.4,10.4,63,0.00,CLR,SKC,0.00,0.0,WeatherDisplay:10.37,2013-04-05 01:43:00,
2013-04-04 19:49:00,64.5,51.6,30.07,ENE,57,11.5,11.5,63,0.00,CLR,SKC,0.00,0.0,WeatherDisplay:10.37,2013-04-05 01:49:00,
2013-04-04 19:54:00,64.4,52.4,30.07,NE,54,12.7,12.7,65,0.00,CLR,SKC,0.00,0.0,WeatherDisplay:10.37,2013-04-05 01:54:00,
2013-04-04 19:59:00,64.2,52.2,30.07,NE,43,11.5,11.5,65,0.00,CLR,SKC,0.00,0.0,WeatherDisplay:10.37,2013-04-05 01:59:00,
2013-04-04 20:04:00,64.0,52.4,30.07,East,94,11.5,11.5,66,0.00,CLR,SKC,0.00,0.0,WeatherDisplay:10.37,2013-04-05 02:04:00,
2013-04-04 20:09:00,63.9,52.3,30.07,ENE,59,11.5,11.5,66,0.00,CLR,SKC,0.00,0.0,WeatherDisplay:10.37,2013-04-05 02:09:00,
2013-04-04 20:14:00,63.8,52.2,30.08,ENE,59,9.0,9.0,66,0.00,CLR,SKC,0.00,0.0,WeatherDisplay:10.37,2013-04-05 02:14:00,
2013-04-04 20:20:00,63.6,52.0,30.08,ENE,74,11.5,11.5,66,0.00,CLR,SKC,0.00,0.0,WeatherDisplay:10.37,2013-04-05 02:20:00,
2013-04-04 20:25:00,63.5,51.5,30.08,ENE,76,15.0,15.0,65,0.00,CLR,SKC,0.00,0.0,WeatherDisplay:10.37,2013-04-05 02:25:00,
2013-04-04 20:30:00,63.4,51.4,30.08,NNE,22,11.5,11.5,65,0.00,CLR,SKC,0.00,0.0,WeatherDisplay:10.37,2013-04-05 02:30:00,
2013-04-04 20:35:00,63.2,51.6,30.08,NE,36,9.2,9.2,66,0.00,OVC,SKC,0.00,0.0,WeatherDisplay:10.37,2013-04-05 02:35:00,
2013-04-04 20:40:00,63.0,51.9,30.08,NE,40,11.5,11.5,67,0.00,CLR,SKC,0.00,0.0,WeatherDisplay:10.37,2013-04-05 02:40:00,
2013-04-04 20:45:00,62.7,51.2,30.09,NE,44,13.8,13.8,66,0.00,CLR,SKC,0.00,0.0,WeatherDisplay:10.37,2013-04-05 02:45:00,
2013-04-04 20:50:00,62.6,51.5,30.09,NE,55,11.5,11.5,67,0.00,CLR,SKC,0.00,0.0,WeatherDisplay:10.37,2013-04-05 02:50:00,
2013-04-04 20:55:00,62.4,50.9,30.09,NE,49,11.5,11.5,66,0.00,OVC,SKC,0.00,0.0,WeatherDisplay:10.37,2013-04-05 02:55:00,
2013-04-04 21:00:00,62.2,51.1,30.10,NE,55,13.0,13.0,67,0.00,OVC,SKC,0.00,0.0,WeatherDisplay:10.37,2013-04-05 03:00:00,
2013-04-04 21:05:00,62.0,50.9,30.10,NE,34,12.7,12.7,67,0.00,OVC,SKC,0.00,0.0,WeatherDisplay:10.37,2013-04-05 03:05:00,
2013-04-04 21:10:00,61.7,50.2,30.10,NNE,31,13.8,13.8,66,0.00,OVC,SKC,0.00,0.0,WeatherDisplay:10.37,2013-04-05 03:10:00,
2013-04-04 21:15:00,61.5,50.4,30.11,ENE,60,12.0,12.0,67,0.00,OVC,SKC,0.00,0.0,WeatherDisplay:10.37,2013-04-05 03:15:00,
2013-04-04 21:20:00,61.4,50.3,30.11,NNE,29,11.5,11.5,67,0.00,OVC,SKC,0.00,0.0,WeatherDisplay:10.37,2013-04-05 03:20:00,
2013-04-04 21:25:00,61.3,50.2,30.11,NE,38,11.0,11.0,67,0.00,OVC,SKC,0.00,0.0,WeatherDisplay:10.37,2013-04-05 03:25:00,
2013-04-04 21:30:00,61.1,50.1,30.11,NE,45,10.4,10.4,67,0.00,OVC,SKC,0.00,0.0,WeatherDisplay:10.37,2013-04-05 03:30:00,
2013-04-04 21:35:00,60.9,49.9,30.11,NNE,28,11.5,11.5,67,0.00,OVC,SKC,0.00,0.0,WeatherDisplay:10.37,2013-04-05 03:35:00,
2013-04-04 21:40:00,60.8,49.4,30.12,NNE,32,11.5,11.5,66,0.00,OVC,SKC,0.00,0.0,WeatherDisplay:10.37,2013-04-05 03:40:00,
2013-04-04 21:45:00,60.7,49.7,30.12,NE,34,12.7,12.7,67,0.00,OVC,SKC,0.00,0.0,WeatherDisplay:10.37,2013-04-05 03:45:00,
2013-04-04 21:50:00,60.7,50.1,30.12,NE,55,9.2,9.2,68,0.00,OVC,SKC,0.00,0.0,WeatherDisplay:10.37,2013-04-05 03:50:00,
2013-04-04 21:55:00,60.5,50.7,30.12,NE,36,11.5,11.5,70,0.00,OVC,SKC,0.00,0.0,WeatherDisplay:10.37,2013-04-05 03:55:00,
2013-04-04 22:00:00,60.5,51.4,30.12,NE,49,8.0,12.0,72,0.00,CLR,SKC,0.00,0.0,WeatherDisplay:10.37,2013-04-05 04:00:00,
2013-04-04 22:01:00,60.5,51.8,30.12,NE,52,9.0,14.0,73,0.00,CLR,SKC,0.00,0.0,WeatherDisplay:10.37,2013-04-05 04:01:00,
2013-04-04 22:06:00,60.4,51.7,30.12,ENE,71,15.0,15.0,73,0.00,OVC,SKC,0.00,0.0,WeatherDisplay:10.37,2013-04-05 04:06:00,
2013-04-04 22:11:00,60.2,51.5,30.13,NE,52,10.0,15.0,73,0.00,CLR,SKC,0.00,0.0,WeatherDisplay:10.37,2013-04-05 04:11:00,
2013-04-04 22:16:00,60.0,51.7,30.13,NE,50,12.7,12.7,74,0.00,OVC,SKC,0.00,0.0,WeatherDisplay:10.37,2013-04-05 04:16:00,
2013-04-04 22:21:00,59.9,52.0,30.13,ENE,71,11.5,11.5,75,0.00,OVC,SKC,0.00,0.0,WeatherDisplay:10.37,2013-04-05 04:21:00,
2013-04-04 22:26:00,59.6,51.7,30.13,NE,52,17.3,17.3,75,0.00,OVC,SKC,0.00,0.0,WeatherDisplay:10.37,2013-04-05 04:26:00,
2013-04-04 22:31:00,59.6,51.7,30.13,NE,50,9.0,12.0,75,0.00,CLR,SKC,0.00,0.0,WeatherDisplay:10.37,2013-04-05 04:31:00,
2013-04-04 22:36:00,59.5,51.6,30.13,ENE,74,16.1,16.1,75,0.00,OVC,SKC,0.00,0.0,WeatherDisplay:10.37,2013-04-05 04:36:00,
2013-04-04 22:41:00,59.5,51.9,30.13,NE,46,9.0,16.0,76,0.00,CLR,SKC,0.00,0.0,WeatherDisplay:10.37,2013-04-05 04:41:00,
2013-04-04 22:46:00,59.2,51.6,30.13,ENE,62,10.4,10.4,76,0.00,CLR,SKC,0.00,0.0,WeatherDisplay:10.37,2013-04-05 04:46:00,
2013-04-04 22:51:00,58.9,51.7,30.13,NNE,21,6.9,6.9,77,0.00,CLR,SKC,0.00,0.0,WeatherDisplay:10.37,2013-04-05 04:51:00,
2013-04-04 22:57:00,58.5,51.3,30.13,NNE,28,10.4,10.4,77,0.00,CLR,SKC,0.00,0.0,WeatherDisplay:10.37,2013-04-05 04:57:00,
2013-04-04 23:02:00,58.1,51.3,30.13,NE,42,12.0,12.0,78,0.00,CLR,SKC,0.00,0.0,WeatherDisplay:10.37,2013-04-05 05:02:00,
2013-04-04 23:07:00,57.9,51.1,30.13,NE,34,10.4,10.4,78,0.00,CLR,SKC,0.00,0.0,WeatherDisplay:10.37,2013-04-05 05:07:00,
2013-04-04 23:12:00,57.6,50.8,30.14,NE,49,8.1,8.1,78,0.00,CLR,SKC,0.00,0.0,WeatherDisplay:10.37,2013-04-05 05:12:00,
2013-04-04 23:17:00,57.5,50.7,30.14,NE,34,11.0,11.0,78,0.00,CLR,SKC,0.00,0.0,WeatherDisplay:10.37,2013-04-05 05:17:00,
2013-04-04 23:22:00,57.4,50.9,30.14,NE,46,6.9,6.9,79,0.00,CLR,SKC,0.00,0.0,WeatherDisplay:10.37,2013-04-05 05:22:00,
2013-04-04 23:27:00,57.3,50.5,30.15,NE,45,12.7,12.7,78,0.00,CLR,SKC,0.00,0.0,WeatherDisplay:10.37,2013-04-05 05:27:00,
2013-04-04 23:32:00,57.2,50.1,30.15,NE,52,11.5,11.5,77,0.00,CLR,SKC,0.00,0.0,WeatherDisplay:10.37,2013-04-05 05:32:00,
2013-04-04 23:37:00,57.1,49.6,30.15,NE,44,12.0,12.0,76,0.00,CLR,SKC,0.00,0.0,WeatherDisplay:10.37,2013-04-05 05:37:00,
2013-04-04 23:42:00,56.9,49.4,30.15,NE,56,12.7,12.7,76,0.00,CLR,SKC,0.00,0.0,WeatherDisplay:10.37,2013-04-05 05:42:00,
2013-04-04 23:47:00,56.8,49.3,30.15,NE,36,12.7,12.7,76,0.00,CLR,SKC,0.00,0.0,WeatherDisplay:10.37,2013-04-05 05:47:00,
2013-04-04 23:52:00,56.7,49.2,30.15,North,11,11.5,11.5,76,0.00,CLR,SKC,0.00,0.0,WeatherDisplay:10.37,2013-04-05 05:52:00,
2013-04-04 23:57:00,56.8,49.3,30.15,North,5,12.7,12.7,76,0.00,CLR,SKC,0.00,0.0,WeatherDisplay:10.37,2013-04-05 05:57:00,